Location: Bourg-d�Oueil
(42.8588°N, 0.4991°E)
Time: 15:20:54
(UTC+00:00)

SPOT 5 - Pass Details

Date: 16 June 2021
Orbit: 622 x 815 km, 98.2° (Epoch: 01 August)

Event Time Altitude Azimuth Distance (km) Brightness Sun altitude
Exits shadow 20:53:08 15° 130° (SE) 2,025 4.5 -11.2°
Maximum altitude 20:56:57 37° 69° (ENE) 1,188 3.8 -11.6°
Drops below altitude 10° 21:01:30 10° 4° (N) 2,258 6.1 -12.2°
Sets 21:03:52 0° 356° (N) 3,153 7.1 -12.5°
